| time (UTC) | temp C | wind direction | speed KPH | gust KPH | rain 1hr cm | rain 24hr cm | rain mn cm | humidity % | barometer mb |
| 20260906224609 | 27 | 144 | 1.6 | 8.0 | 0.00 | 0.00 | 0.00 | 32 | 1000.3 |
| 20260906223106 | 26 | 205 | 1.6 | 11.3 | 0.00 | 0.00 | 0.00 | 33 | 1000.6 |
| 20260906221603 | 25 | 161 | 0.0 | 12.9 | 0.00 | 0.00 | 0.00 | 36 | 1000.8 |
| 20260906220054 | 25 | 305 | 1.6 | 11.3 | 0.00 | 0.00 | 0.00 | 37 | 1001.1 |
| 20260906214522 | 25 | 163 | 1.6 | 14.5 | 0.00 | 0.00 | 0.00 | 36 | 1001.2 |
| 20260906213021 | 25 | 232 | 1.6 | 17.7 | 0.00 | 0.00 | 0.00 | 36 | 1001.4 |
| 20260906211550 | 25 | 249 | 3.2 | 19.3 | 0.00 | 0.00 | 0.00 | 35 | 1001.6 |
| 20260906210106 | 27 | 294 | 4.8 | 16.1 | 0.00 | 0.00 | 0.00 | 31 | 1001.6 |
| 20260906204546 | 27 | 171 | 4.8 | 25.7 | 0.00 | 0.00 | 0.00 | 32 | 1001.8 |
| 20260906203045 | 26 | 222 | 1.6 | 12.9 | 0.00 | 0.00 | 0.00 | 32 | 1002.0 |
| 20260906201607 | 26 | 259 | 3.2 | 19.3 | 0.00 | 0.00 | 0.00 | 33 | 1001.9 |
| 20260906200043 | 25 | 128 | 1.6 | 14.5 | 0.00 | 0.00 | 0.00 | 33 | 1002.0 |
| 20260906194542 | 26 | 333 | 1.6 | 14.5 | 0.00 | 0.00 | 0.00 | 31 | 1002.1 |
| 20260906193039 | 26 | 167 | 1.6 | 8.0 | 0.00 | 0.00 | 0.00 | 28 | 1002.1 |
| 20260906191540 | 26 | 246 | 4.8 | 12.9 | 0.00 | 0.00 | 0.00 | 27 | 1002.4 |
| 20260906190034 | 26 | 242 | 1.6 | 12.9 | 0.00 | 0.00 | 0.00 | 29 | 1002.6 |
| 20260906184542 | 25 | 250 | 4.8 | 19.3 | 0.00 | 0.00 | 0.00 | 31 | 1002.9 |
| 20260906183032 | 26 | 269 | 4.8 | 17.7 | 0.00 | 0.00 | 0.00 | 31 | 1003.2 |
| 20260906181546 | 25 | 206 | 3.2 | 12.9 | 0.00 | 0.00 | 0.00 | 31 | 1003.6 |
| 20260906180016 | 25 | 254 | 0.0 | 8.0 | 0.00 | 0.00 | 0.00 | 31 | 1003.9 |
| 20260906174517 | 24 | 287 | 1.6 | 9.7 | 0.00 | 0.00 | 0.00 | 33 | 1004.2 |
| 20260906173009 | 23 | 325 | 3.2 | 12.9 | 0.00 | 0.00 | 0.00 | 35 | 1004.5 |
| 20260906171509 | 23 | 204 | 3.2 | 12.9 | 0.00 | 0.00 | 0.00 | 35 | 1004.8 |
| 20260906170016 | 23 | 274 | 3.2 | 12.9 | 0.00 | 0.00 | 0.00 | 36 | 1005.0 |
| 20260906164503 | 22 | 259 | 1.6 | 11.3 | 0.00 | 0.00 | 0.00 | 37 | 1005.3 |
| 20260906163105 | 22 | 271 | 1.6 | 9.7 | 0.00 | 0.00 | 0.00 | 37 | 1005.4 |
| 20260906161606 | 22 | 250 | 0.0 | 12.9 | 0.00 | 0.00 | 0.00 | 38 | 1005.4 |
| 20260906160055 | 21 | 321 | 1.6 | 8.0 | 0.00 | 0.00 | 0.00 | 40 | 1005.3 |
| 20260906154552 | 20 | 92 | 0.0 | 4.8 | 0.00 | 0.00 | 0.00 | 47 | 1005.1 |
| 20260906153042 | 18 | 60 | 0.0 | 1.6 | 0.00 | 0.00 | 0.00 | 50 | 1005.1 |
| 20260906151541 | 17 | 60 | 0.0 | 3.2 | 0.00 | 0.00 | 0.00 | 53 | 1005.2 |
| 20260906150038 | 17 | 328 | 0.0 | 1.6 | 0.00 | 0.00 | 0.00 | 52 | 1005.0 |
| 20260906144536 | 15 | 327 | 0.0 | 0.0 | 0.00 | 0.00 | 0.00 | 60 | 1005.1 |
| 20260906143100 | 13 | 323 | 1.6 | 3.2 | 0.00 | 0.00 | 0.00 | 63 | 1005.0 |
| 20260906141559 | 12 | 55 | 0.0 | 1.6 | 0.00 | 0.00 | 0.00 | 68 | 1004.9 |
| 20260906134602 | 11 | 65 | 0.0 | 0.0 | 0.00 | 0.00 | 0.00 | 68 | 1004.3 |
| 20260906133044 | -17 | 0.0 | 0.0 | 0.00 | 0.00 | 0.00 | 1004.3 | ||
| 20260906131541 | -17 | 0.0 | 0.0 | 0.00 | 0.00 | 0.00 | 1004.2 | ||
| 20260906130035 | -17 | 0.0 | 0.0 | 0.00 | 0.00 | 0.00 | 1004.0 | ||
| 20260906124531 | -17 | 0.0 | 0.0 | 0.00 | 0.00 | 0.00 | 1004.0 | ||
| 20260906123032 | -17 | 0.0 | 0.0 | 0.00 | 0.00 | 0.00 | 1004.0 | ||
| 20260906121528 | -17 | 0.0 | 0.0 | 0.00 | 0.00 | 0.00 | 1004.2 | ||
| 20260906120016 | -17 | 0.0 | 0.0 | 0.00 | 0.00 | 0.00 | 1004.3 | ||
| 20260906114532 | -17 | 0.0 | 0.0 | 0.00 | 0.00 | 0.00 | 1004.5 | ||
| 20260906113008 | -17 | 0.0 | 0.0 | 0.00 | 0.00 | 0.00 | 1004.5 | ||
| 20260906111503 | -17 | 0.0 | 0.0 | 0.00 | 0.00 | 0.00 | 1004.5 | ||
| 20260906110057 | -17 | 0.0 | 0.0 | 0.00 | 0.00 | 0.00 | 1004.6 | ||
| 20260906104555 | 11 | 19 | 0.0 | 0.0 | 0.00 | 0.00 | 0.00 | 72 | 1004.6 |
| 20260906103054 | 12 | 19 | 0.0 | 0.0 | 0.00 | 0.00 | 0.00 | 70 | 1004.7 |
| 20260906101559 | 12 | 36 | 0.0 | 0.0 | 0.00 | 0.00 | 0.00 | 69 | 1004.7 |
| 20260906100050 | 11 | 36 | 0.0 | 0.0 | 0.00 | 0.00 | 0.00 | 71 | 1004.5 |
| 20260906094555 | 11 | 36 | 0.0 | 0.0 | 0.00 | 0.00 | 0.00 | 74 | 1004.6 |
| 20260906093048 | 11 | 74 | 0.0 | 0.0 | 0.00 | 0.00 | 0.00 | 74 | 1004.8 |
| 20260906091550 | 11 | 31 | 0.0 | 0.0 | 0.00 | 0.00 | 0.00 | 74 | 1004.8 |
| 20260906090045 | 12 | 40 | 0.0 | 0.0 | 0.00 | 0.00 | 0.00 | 72 | 1004.8 |
| 20260906084545 | 11 | 49 | 0.0 | 0.0 | 0.00 | 0.00 | 0.00 | 76 | 1004.8 |
| 20260906083044 | 11 | 24 | 0.0 | 0.0 | 0.00 | 0.00 | 0.00 | 77 | 1004.8 |
| 20260906081543 | 12 | 44 | 0.0 | 0.0 | 0.00 | 0.00 | 0.00 | 75 | 1004.9 |
| 20260906080042 | 12 | 343 | 0.0 | 0.0 | 0.00 | 0.00 | 0.00 | 73 | 1004.9 |
| 20260906074544 | 12 | 343 | 0.0 | 0.0 | 0.00 | 0.00 | 0.00 | 74 | 1005.0 |
| 20260906073044 | 11 | 39 | 0.0 | 0.0 | 0.00 | 0.00 | 0.00 | 77 | 1004.9 |
| 20260906071539 | 11 | 40 | 0.0 | 0.0 | 0.00 | 0.00 | 0.00 | 77 | 1004.9 |
| 20260906070035 | 12 | 46 | 0.0 | 0.0 | 0.00 | 0.00 | 0.00 | 77 | 1004.8 |
| 20260906064537 | 12 | 321 | 0.0 | 0.0 | 0.00 | 0.00 | 0.00 | 78 | 1004.7 |
| 20260906063033 | 12 | 56 | 0.0 | 0.0 | 0.00 | 0.00 | 0.00 | 74 | 1004.6 |
| 20260906061531 | 12 | 61 | 0.0 | 1.6 | 0.00 | 0.00 | 0.00 | 79 | 1004.6 |
| 20260906060034 | 12 | 107 | 0.0 | 6.4 | 0.00 | 0.00 | 0.00 | 76 | 1004.9 |
| 20260906054524 | 13 | 74 | 0.0 | 1.6 | 0.00 | 0.00 | 0.00 | 73 | 1005.0 |
| 20260906053030 | 13 | 65 | 0.0 | 3.2 | 0.00 | 0.00 | 0.00 | 72 | 1005.2 |
| 20260906051519 | 14 | 40 | 0.0 | 1.6 | 0.00 | 0.00 | 0.00 | 70 | 1005.5 |
| 20260906050017 | 15 | 72 | 0.0 | 6.4 | 0.00 | 0.00 | 0.00 | 65 | 1005.6 |
| 20260906044514 | 15 | 88 | 0.0 | 8.0 | 0.00 | 0.00 | 0.00 | 62 | 1005.5 |
| 20260906043014 | 15 | 111 | 1.6 | 9.7 | 0.00 | 0.00 | 0.00 | 63 | 1005.5 |
| 20260906041518 | 15 | 87 | 1.6 | 9.7 | 0.00 | 0.00 | 0.00 | 66 | 1005.4 |
| 20260906040024 | 15 | 64 | 1.6 | 20.9 | 0.00 | 0.00 | 0.00 | 64 | 1005.4 |
| 20260906034506 | 17 | 82 | 3.2 | 14.5 | 0.00 | 0.00 | 0.00 | 54 | 1004.9 |
| 20260906033004 | 18 | 32 | 3.2 | 14.5 | 0.00 | 0.00 | 0.00 | 48 | 1004.7 |
| 20260906031503 | 18 | 106 | 1.6 | 4.8 | 0.00 | 0.00 | 0.00 | 42 | 1004.4 |
| 20260906030004 | 18 | 292 | 0.0 | 0.0 | 0.00 | 0.00 | 0.00 | 41 | 1003.8 |
| 20260906024541 | 18 | 287 | 0.0 | 0.0 | 0.00 | 0.00 | 0.00 | 42 | 1003.7 |
| 20260906023040 | 18 | 287 | 0.0 | 0.0 | 0.00 | 0.00 | 0.00 | 42 | 1003.6 |
| 20260906021530 | 18 | 271 | 0.0 | 0.0 | 0.00 | 0.00 | 0.00 | 41 | 1003.5 |
| 20260906020035 | 18 | 275 | 0.0 | 1.6 | 0.00 | 0.00 | 0.00 | 40 | 1003.2 |
| 20260906014529 | 19 | 263 | 0.0 | 1.6 | 0.00 | 0.00 | 0.00 | 38 | 1003.2 |
| 20260906013029 | 20 | 265 | 0.0 | 3.2 | 0.00 | 0.00 | 0.00 | 36 | 1003.0 |
| 20260906011526 | 21 | 281 | 0.0 | 1.6 | 0.00 | 0.00 | 0.00 | 34 | 1003.0 |
| 20260906010025 | 23 | 271 | 0.0 | 3.2 | 0.00 | 0.00 | 0.00 | 30 | 1003.0 |
| 20260906004524 | 25 | 286 | 0.0 | 3.2 | 0.00 | 0.00 | 0.00 | 28 | 1002.9 |
| 20260906003024 | 24 | 48 | 0.0 | 4.8 | 0.00 | 0.00 | 0.00 | 29 | 1002.9 |
| 20260906001522 | 25 | 294 | 1.6 | 8.0 | 0.00 | 0.00 | 0.00 | 27 | 1002.9 |
| 20260906000022 | 25 | 289 | 1.6 | 9.7 | 0.00 | 0.00 | 0.00 | 27 | 1002.9 |
| 20260905234521 | 23 | 294 | 3.2 | 12.9 | 0.00 | 0.00 | 0.00 | 29 | 1002.8 |
| 20260905233021 | 25 | 274 | 3.2 | 14.5 | 0.00 | 0.00 | 0.00 | 27 | 1002.8 |
| 20260905231524 | 26 | 167 | 1.6 | 11.3 | 0.00 | 0.00 | 0.00 | 26 | 1002.6 |
| 20260905230017 | 26 | 294 | 4.8 | 14.5 | 0.00 | 0.00 | 0.00 | 25 | 1002.6 |